Weather History for KAFF - February, 2014

Change the Weather History Date:

Thursday, February 20, 2014

  Actual Average Record
Temperature  
Mean Temperature 20 °F -  
Max Temperature 31 °F 40 °F 57 °F (2015)
Min Temperature 9 °F 20 °F 9 °F (2014)
Degree Days  
Heating Degree Days 45    
Moisture  
Dew Point 9 °F    
Average Humidity 61    
Maximum Humidity 88    
Minimum Humidity 20    
Precipitation  
Precipitation 0.01 in - - ()
Snow  
Snow 0.00 in - - ()
Snow Depth 3.00 in    
Sea Level Pressure  
Sea Level Pressure 29.84 in    
Wind  
Wind Speed 18 mph (NNW)    
Max Wind Speed 26 mph    
Max Gust Speed 39 mph    
Visibility 7 miles    
Events Snow    
Averages and records for this station are not official NWS values.
T = Trace of Precipitation, MM = Missing Value Source: NWS Daily Summary

Daily Weather History Graph

Daily Weather History Graph

Search for Another Location

Airport or City:

Trip Planner

Search our weather history database for the weather conditions in past years. The results will help you decide how hot, cold, wet, or windy it might be!

Date:

Astronomy

Feb. 20, 2014 Rise Set
Actual Time 6:44 AM MST 5:42 PM MST
Civil Twilight 6:17 AM MST 6:09 PM MST
Nautical Twilight 5:45 AM MST 6:40 PM MST
Astronomical Twilight 5:15 AM MST 7:11 PM MST
Moon 11:35 PM MST (2/20) 9:31 AM MST (2/20)
Length of Visible Light 11h 52m
Length of Day
10h 58m
Waning Gibbous, 70% of the Moon is Illuminated
Feb 20
Waning Gibbous
Feb 22
Last Quarter
Mar 1
New
Mar 8
First Quarter
Mar 16
Full

Hourly Weather History & Observations

Time (MST) Temp. Windchill Dew Point Humidity Pressure Visibility Wind Dir Wind Speed Gust Speed Precip Events Conditions
12:03 AM 24.8 °F 10.0 °F 21.2 °F 86% 29.65 in 1.5 mi NNW 21.9 mph 35.7 mph N/A Snow Light Snow
12:08 AM 24.8 °F 10.3 °F 21.2 °F 86% 29.66 in 2.0 mi NNW 20.7 mph 31.1 mph N/A Snow Light Snow
12:13 AM 24.8 °F 10.0 °F 21.2 °F 86% 29.66 in 2.5 mi NNW 21.9 mph 26.5 mph N/A Snow Light Snow
12:28 AM 23.0 °F 8.3 °F 19.4 °F 86% 29.69 in 2.0 mi North 19.6 mph 29.9 mph N/A Snow Light Snow
12:38 AM 23.0 °F 7.6 °F 17.6 °F 80% 29.69 in 2.0 mi NNW 21.9 mph 27.6 mph N/A Snow Light Snow
12:48 AM 23.0 °F 8.3 °F 17.6 °F 80% 29.69 in 1.8 mi NNW 19.6 mph 31.1 mph N/A Snow Light Snow
12:53 AM 23.0 °F 6.9 °F 17.6 °F 80% 29.70 in 2.0 mi North 24.2 mph 31.1 mph N/A Snow Light Snow
12:58 AM 22.3 °F 6.3 °F 18.1 °F 84% 29.65 in 1.8 mi North 23.0 mph 33.4 mph 0.00 in Snow Light Snow
1:03 AM 21.2 °F 4.5 °F 17.6 °F 86% 29.69 in 1.2 mi NNW 24.2 mph 33.4 mph N/A Snow Light Snow
1:08 AM 21.2 °F 4.9 °F 17.6 °F 86% 29.69 in 1.0 mi NNW 23.0 mph 29.9 mph N/A Snow Light Snow
1:18 AM 21.2 °F 4.9 °F 17.6 °F 86% 29.70 in 1.2 mi NNW 23.0 mph 29.9 mph N/A Snow Light Snow
1:33 AM 21.2 °F 6.4 °F 17.6 °F 86% 29.70 in 1.5 mi NNW 18.4 mph 28.8 mph N/A Snow Light Snow
1:38 AM 21.2 °F 6.4 °F 17.6 °F 86% 29.70 in 1.5 mi NNW 18.4 mph 28.8 mph N/A Snow Light Snow
1:53 AM 21.2 °F 6.0 °F 17.6 °F 86% 29.70 in 1.8 mi NNW 19.6 mph 26.5 mph N/A Snow Light Snow
1:58 AM 21.4 °F 5.5 °F 17.2 °F 84% 29.68 in 1.8 mi NNW 21.9 mph 29.9 mph 0.00 in Snow Light Snow
2:13 AM 21.2 °F 7.3 °F 17.6 °F 86% 29.73 in 2.5 mi NNW 16.1 mph - N/A Snow Light Snow
2:38 AM 21.2 °F 7.3 °F 17.6 °F 86% 29.73 in 3.0 mi NNW 16.1 mph - N/A Snow Light Snow
2:43 AM 21.2 °F 7.3 °F 17.6 °F 86% 29.73 in 4.0 mi NNW 16.1 mph - N/A Snow Light Snow
2:48 AM 21.2 °F 8.9 °F 17.6 °F 86% 29.73 in 6.0 mi NNW 12.7 mph - N/A Snow Light Snow
2:58 AM 21.4 °F 8.0 °F 16.3 °F 81% 29.70 in 10.0 mi NNW 15.0 mph - 0.00 in Snow Light Snow
3:08 AM 21.2 °F 8.9 °F 15.8 °F 80% 29.73 in 10.0 mi NNW 12.7 mph - N/A Snow Light Snow
3:18 AM 21.2 °F 8.9 °F 15.8 °F 80% 29.74 in 10.0 mi NNW 12.7 mph - N/A Snow Light Snow
3:33 AM 21.2 °F 10.9 °F 15.8 °F 80% 29.74 in 10.0 mi North 9.2 mph - N/A Snow Light Snow
3:38 AM 21.2 °F 8.9 °F 15.8 °F 80% 29.74 in 10.0 mi North 12.7 mph - N/A Snow Light Snow
3:43 AM 21.2 °F 8.3 °F 15.8 °F 80% 29.74 in 10.0 mi North 13.8 mph - N/A Snow Light Snow
3:48 AM 21.2 °F 8.3 °F 15.8 °F 80% 29.75 in 10.0 mi North 13.8 mph - N/A Snow Light Snow
3:53 AM 21.2 °F 10.1 °F 15.8 °F 80% 29.75 in 10.0 mi North 10.4 mph - N/A Snow Light Snow
3:58 AM 20.8 °F 9.0 °F 15.6 °F 80% 29.73 in 10.0 mi North 11.5 mph - 0.00 in Snow Light Snow
4:08 AM 21.2 °F 10.1 °F 15.8 °F 80% 29.76 in 10.0 mi North 10.4 mph - N/A Snow Light Snow
4:13 AM 19.4 °F 7.9 °F 14.0 °F 80% 29.76 in 10.0 mi North 10.4 mph - N/A Snow Light Snow
4:58 AM 14.5 °F 2.7 °F 10.4 °F 84% 29.82 in 10.0 mi NNW 9.2 mph - 0.00 in Snow Light Snow
5:58 AM 11.1 °F 0.4 °F 8.2 °F 88% 29.90 in 10.0 mi North 6.9 mph - 0.00 in Snow Light Snow
6:58 AM 9.9 °F 0.2 °F 5.7 °F 83% 29.95 in 10.0 mi NNW 5.8 mph - 0.00 in Snow Light Snow
7:58 AM 14.4 °F 4.3 °F 5.5 °F 68% 29.99 in 10.0 mi NNE 6.9 mph - 0.00 in Snow Light Snow
8:58 AM 18.0 °F 9.8 °F 5.5 °F 58% 29.97 in 10.0 mi North 5.8 mph - 0.00 in Snow Light Snow
9:58 AM 24.6 °F 13.8 °F 0.3 °F 35% 30.01 in 10.0 mi WNW 11.5 mph - 0.00 in   Clear
10:25 AM 26.6 °F 13.4 °F -0.4 °F 31% 29.92 in 10.0 mi West 18.4 mph 20.7 mph N/A   Partly Cloudy
10:31 AM 26.6 °F 13.4 °F -0.4 °F 31% 29.92 in 10.0 mi NW 18.4 mph 26.5 mph N/A   Partly Cloudy
10:58 AM 26.1 °F 13.6 °F -1.7 °F 30% 30.02 in 10.0 mi West 16.1 mph 20.7 mph N/A   Partly Cloudy
11:58 AM 25.9 °F 11.4 °F 0.3 °F 33% 30.03 in 8.0 mi West 21.9 mph 27.6 mph N/A   Clear
12:10 PM 26.6 °F 13.1 °F -0.4 °F 31% 29.92 in 10.0 mi NW 19.6 mph 29.9 mph N/A   Partly Cloudy
12:58 PM 27.9 °F 16.3 °F -3.3 °F 26% 30.03 in 10.0 mi WNW 15.0 mph 25.3 mph N/A   Partly Cloudy
1:58 PM 28.2 °F 17.2 °F 1.0 °F 31% 30.04 in 10.0 mi North 13.8 mph 26.5 mph N/A   Partly Cloudy
2:15 PM 28.4 °F 16.6 °F 1.4 °F 31% 29.91 in 10.0 mi North 16.1 mph 21.9 mph N/A   Partly Cloudy
2:21 PM 28.4 °F 15.1 °F 3.2 °F 34% 29.91 in 10.0 mi NW 20.7 mph 27.6 mph N/A   Partly Cloudy
2:58 PM 30.2 °F 20.2 °F -1.8 °F 25% 30.01 in 10.0 mi NNW 12.7 mph 27.6 mph N/A   Clear
3:58 PM 31.3 °F 18.9 °F -3.3 °F 23% 30.03 in 10.0 mi NNW 20.7 mph 28.8 mph N/A   Clear
4:58 PM 29.7 °F 18.6 °F -2.2 °F 25% 30.07 in 10.0 mi West 15.0 mph 19.6 mph N/A   Clear
5:58 PM 28.4 °F 13.5 °F -3.3 °F 25% 30.10 in 10.0 mi West 26.5 mph 36.8 mph N/A   Clear
6:58 PM 27.3 °F 12.1 °F -0.4 °F 30% 30.11 in 10.0 mi West 26.5 mph 39.1 mph N/A   Clear
7:58 PM 27.5 °F 12.6 °F -1.3 °F 29% 30.04 in 10.0 mi WSW 25.3 mph 39.1 mph 0.01 in   Clear
8:58 PM 27.9 °F 16.3 °F -2.9 °F 26% 30.01 in 10.0 mi West 15.0 mph 32.2 mph N/A   Clear
9:58 PM 29.1 °F 17.5 °F -3.8 °F 24% 29.99 in 10.0 mi West 16.1 mph 28.8 mph N/A   Clear
10:06 PM 28.4 °F 16.6 °F -4.0 °F 25% 29.87 in 10.0 mi NW 16.1 mph 34.5 mph N/A   Clear
10:28 PM 30.2 °F 18.5 °F -5.8 °F 21% 29.87 in 10.0 mi West 17.3 mph 25.3 mph N/A   Clear
10:58 PM 30.6 °F 23.8 °F -7.1 °F 20% 29.93 in 10.0 mi Variable 6.9 mph - N/A   Clear
11:58 PM 30.4 °F 22.9 °F -6.0 °F 21% 29.92 in 10.0 mi ESE 8.1 mph 18.4 mph N/A   Clear